Today (as of 03:34)
30° Clear
Date Summary Temp Chance of Precip Humidity%
Jan. 20 03:00 Clear 29° 02% 58%
Jan. 20 04:00 Clear 30° 01% 56%
Jan. 20 05:00 Clear 30° 01% 56%
Jan. 20 06:00 Clear 30° 02% 56%
Jan. 20 07:00 Clear 31° 02% 55%
Jan. 20 08:00 Clear 33° 02% 52%
Jan. 20 09:00 Partly Cloudy 36° 02% 49%
Jan. 20 10:00 Partly Cloudy 39° 02% 49%
Jan. 20 11:00 Partly Cloudy 42° 02% 52%
Jan. 20 12:00 Partly Cloudy 45° 02% 55%
Jan. 20 13:00 Partly Cloudy 48° 01% 57%
Jan. 20 14:00 Partly Cloudy 51° 01% 56%
Jan. 20 15:00 Partly Cloudy 53° 01% 56%
Jan. 20 16:00 Partly Cloudy 54° 01% 57%
Jan. 20 17:00 Partly Cloudy 54° 01% 57%
Jan. 20 18:00 Partly Cloudy 50° 02% 66%
Jan. 20 19:00 Partly Cloudy 46° 02% 75%
Jan. 20 20:00 Partly Cloudy 44° 02% 79%
Jan. 20 21:00 Partly Cloudy 43° 02% 8%
Jan. 20 22:00 Partly Cloudy 41° 02% 82%
Jan. 20 23:00 Partly Cloudy 40° 02% 84%
Jan. 21 00:00 Partly Cloudy 40° 02% 85%
Jan. 21 01:00 Clear 40° 02% 85%
Jan. 21 02:00 Clear 40° 02% 84%

200